EW9605 Weather Reports


time (UTC)temp
C
wind
direction
speed
KPH
gust
KPH
rain 1hr
cm
rain 24hr
cm
rain mn
cm
humidity
%
barometer
mb
20260503072636 20 51 8.0 11.3 1.04 2.69 1.70 98 1012.2
20260503072135 20 34 0.0 1.6 1.12 2.69 1.70 98 1012.1
20260503071634 21 0.0 0.0 1.14 2.69 1.68 98 1012.4
20260503071132 21 48 8.0 16.1 1.14 2.62 1.63 98 1012.2
20260503070631 21 18 6.4 11.3 1.19 2.54 1.52 98 1012.3
20260503070130 21 6 4.8 11.3 1.27 2.44 1.42 98 1012.4
20260503060154 22 0.0 0.0 0.15 1.14 0.15 96 1012.6
20260503054630 22 0.0 0.0 0.00 1.02 0.00 96 1012.3
20260503054149 22 0.0 0.0 0.00 0.99 0.00 96 1012.4
20260503053628 22 0.0 0.0 0.00 0.99 0.00 96 1012.6
20260503053126 22 0.0 0.0 0.00 0.99 0.00 96 1012.9
20260503052625 22 0.0 0.0 0.00 0.99 0.00 96 1012.8
20260503052124 21 0.0 0.0 0.00 0.99 0.00 96 1012.5
20260503051623 21 0.0 0.0 0.00 0.99 0.00 96 1012.4
20260503051121 21 0.0 0.0 0.00 0.99 0.00 96 1012.4
20260503050619 21 0.0 0.0 0.00 0.99 0.00 96 1012.6
20260503050118 21 0.0 0.0 0.00 0.99 0.00 96 1012.9
20260503045617 21 0.0 0.0 0.00 0.99 0.00 96 1012.9
20260503045116 21 0.0 0.0 0.00 0.99 0.00 96 1012.8
20260503044635 21 0.0 0.0 0.00 0.99 0.00 96 1012.9
20260503044153 21 0.0 0.0 0.00 0.99 0.00 97 1012.7
20260503043653 21 0.0 0.0 0.00 0.99 0.00 96 1012.7
20260503043131 21 0.0 0.0 0.00 0.99 0.00 96 1012.7
20260503042629 21 0.0 0.0 0.00 0.99 0.00 96 1012.9
20260503042148 21 0.0 0.0 0.00 0.99 0.00 96 1012.8
20260503041627 21 0.0 0.0 0.00 0.99 0.00 96 1012.8
20260503041126 21 0.0 0.0 0.00 0.99 0.00 96 1012.5
20260503040624 21 0.0 0.0 0.00 0.99 0.00 96 1012.6
20260503040123 21 0.0 0.0 0.00 0.99 0.00 97 1012.7
20260503035622 21 0.0 0.0 0.00 0.99 0.99 97 1012.7
20260503035121 21 0.0 0.0 0.00 0.99 0.99 97 1012.8
20260503034619 21 0.0 0.0 0.00 0.99 0.99 97 1012.3
20260503034118 21 0.0 0.0 0.00 0.99 0.99 97 1012.4
20260503033617 21 0.0 0.0 0.00 0.99 0.99 96 1012.0
20260503033116 21 0.0 0.0 0.00 0.99 0.99 96 1012.2
20260503032635 21 0.0 0.0 0.00 0.99 0.99 96 1012.0
20260503032133 21 0.0 0.0 0.00 0.99 0.99 96 1011.8
20260503031713 21 0.0 0.0 0.00 0.99 0.99 96 1012.0
20260503031131 21 0.0 0.0 0.00 0.99 0.99 96 1011.8
20260503030630 21 0.0 0.0 0.00 0.99 0.99 96 1011.4
20260503030128 21 0.0 0.0 0.00 0.99 0.99 96 1011.3
20260503025627 21 0.0 0.0 0.00 0.99 0.99 96 1011.1
20260503025125 21 0.0 0.0 0.00 0.99 0.99 96 1011.2
20260503024624 21 0.0 0.0 0.00 0.99 0.99 96 1011.7
20260503024123 21 0.0 0.0 0.00 0.99 0.99 96 1012.0
20260503023622 21 0.0 0.0 0.00 0.99 0.99 96 1011.9
20260503023121 21 0.0 0.0 0.00 0.99 0.99 96 1011.4
20260503022619 21 0.0 0.0 0.00 0.99 0.99 96 1011.5
20260503022118 21 0.0 0.0 0.00 0.99 0.99 96 1011.4
20260503021616 21 0.0 0.0 0.00 0.99 0.99 96 1011.6
20260503021115 21 0.0 0.0 0.00 0.99 0.99 96 1011.5
20260503020634 21 0.0 0.0 0.00 0.99 0.99 96 1011.8
20260503020133 21 0.0 0.0 0.00 0.99 0.99 96 1011.8
20260503015632 21 0.0 0.0 0.00 0.99 0.99 96 1011.8
20260503015130 21 0.0 0.0 0.00 0.99 0.99 96 1011.5
20260503014629 21 0.0 0.0 0.00 0.99 0.99 96 1011.7
20260503014127 21 0.0 0.0 0.00 0.99 0.99 96 1011.6
20260503013626 21 0.0 0.0 0.00 0.99 0.99 96 1011.5
20260503013125 21 0.0 0.0 0.00 0.99 0.99 96 1011.3
20260503012644 21 0.0 0.0 0.00 0.99 0.99 96 1011.2
20260503012122 21 0.0 0.0 0.00 0.99 0.99 96 1010.6
20260503011641 21 0.0 0.0 0.00 0.99 0.99 96 1010.3
20260503011120 21 0.0 0.0 0.00 0.99 0.99 96 1010.3
20260503010619 21 0.0 0.0 0.00 0.99 0.99 96 1010.3
20260503010117 21 0.0 0.0 0.03 0.99 0.99 96 1010.3
20260503005616 21 0.0 0.0 0.03 0.99 0.99 96 1010.4
20260503005215 21 0.0 0.0 0.03 0.99 0.99 96 1010.7
20260503004633 21 0.0 0.0 0.03 0.99 0.99 96 1010.9
20260503004132 21 0.0 0.0 0.03 0.99 0.99 96 1010.7
20260503003651 21 0.0 0.0 0.03 0.99 0.99 96 1010.6
20260503003129 21 0.0 0.0 0.03 0.99 0.99 96 1010.3
20260503002628 21 0.0 0.0 0.05 0.99 0.99 96 1009.9
20260503002127 21 0.0 0.0 0.05 0.99 0.99 96 1009.7
20260503001646 21 215 0.0 1.6 0.05 0.99 0.99 96 1010.3
20260503001145 21 0.0 0.0 0.05 0.99 0.99 96 1010.4
20260503000623 21 0.0 0.0 0.08 0.99 0.99 96 1010.7
20260503000122 21 235 0.0 1.6 0.05 0.99 0.99 96 1010.4
20260502235621 21 0.0 0.0 0.05 0.99 0.99 96 1009.9
20260502235119 21 0.0 0.0 0.08 0.99 0.99 96 1009.4
20260502234618 21 133 3.2 6.4 0.08 0.99 0.99 96 1008.6
20260502234116 21 131 1.6 3.2 0.08 0.99 0.99 95 1008.8
20260502233615 21 150 0.0 1.6 0.08 0.99 0.99 95 1009.3
20260502233134 21 0.0 0.0 0.08 0.97 0.97 95 1009.7
20260502232633 22 0.0 0.0 0.08 0.97 0.97 94 1009.8
20260502232132 22 0.0 0.0 0.10 0.97 0.97 94 1010.0
20260502231630 22 164 0.0 3.2 0.10 0.94 0.94 94 1010.0
20260502231129 22 0.0 0.0 0.13 0.94 0.94 94 1009.9
20260502230648 22 0.0 0.0 0.15 0.91 0.91 94 1009.8
20260502230126 22 0.0 0.0 0.15 0.91 0.91 94 1009.5
20260502225625 22 0.0 0.0 0.15 0.91 0.91 94 1009.7
20260502225123 22 0.0 0.0 0.18 0.91 0.91 94 1010.0
20260502224622 22 161 0.0 3.2 0.18 0.91 0.91 94 1010.1
20260502224122 22 0.0 0.0 0.18 0.91 0.91 93 1010.0
20260502223621 22 0.0 0.0 0.18 0.89 0.89 93 1009.7
20260502223140 22 0.0 0.0 0.18 0.89 0.89 93 1009.4
20260502222617 22 0.0 0.0 0.18 0.89 0.89 93 1009.6
20260502222116 22 0.0 0.0 0.15 0.86 0.86 93 1009.8
20260502221635 22 0.0 0.0 0.18 0.84 0.84 93 1009.8
20260502221134 22 0.0 0.0 0.20 0.81 0.81 93 1010.2
20260502220632 22 0.0 0.0 0.20 0.79 0.79 93 1009.6
20260502220131 22 0.0 0.0 0.23 0.76 0.76 92 1009.9
20260502215630 22 0.0 0.0 0.23 0.76 0.76 92 1010.3
20260502215128 22 0.0 0.0 0.20 0.74 0.74 92 1010.1
20260502214627 22 0.0 0.0 0.18 0.71 0.71 92 1009.4
20260502214126 22 0.0 0.0 0.18 0.71 0.71 92 1009.6
20260502213624 22 0.0 0.0 0.18 0.71 0.71 93 1009.6
20260502213123 22 0.0 0.0 0.20 0.71 0.71 93 1009.5
20260502212622 22 0.0 0.0 0.61 0.71 0.71 91 1009.7
20260502212120 22 0.0 0.0 0.69 0.71 0.71 91 1009.5
20260502211618 22 0.0 0.0 0.64 0.66 0.66 91 1009.5
20260502211117 22 0.0 0.0 0.58 0.61 0.61 92 1009.7
20260502210616 22 271 0.0 3.2 0.56 0.56 0.56 92 1010.0
20260502210134 22 258 1.6 9.7 0.53 0.53 0.53 91 1010.0
20260502205633 22 318 3.2 11.3 0.51 0.53 0.53 91 1009.5
20260502205132 22 276 1.6 3.2 0.51 0.53 0.53 90 1009.6
20260502204630 22 0.0 0.0 0.51 0.53 0.53 89 1009.5
20260502204129 22 226 1.6 6.4 0.51 0.53 0.53 90 1009.4
20260502203628 23 264 4.8 9.7 0.51 0.53 0.53 89 1009.5
20260502203127 24 286 3.2 6.4 0.51 0.51 0.51 85 1009.5
20260502202625 27 279 16.1 30.6 0.10 0.10 0.10 76 1009.3
20260502202125 27 235 6.4 6.4 0.00 0.00 0.00 78 1008.9
20260502201623 27 221 3.2 9.7 0.00 0.00 0.00 78 1009.0
20260502201142 27 0.0 0.0 0.00 0.00 0.00 78 1009.0
20260502200620 28 238 3.2 9.7 0.00 0.00 0.00 78 1009.0
20260502200119 28 208 6.4 9.7 0.00 0.00 0.00 78 1009.0
20260502195618 28 232 3.2 9.7 0.00 0.00 0.00 77 1009.1
20260502195116 27 240 12.9 24.1 0.00 0.00 0.00 78 1009.0
20260502194635 27 187 1.6 6.4 0.00 0.00 0.00 77 1009.0
20260502194133 27 244 1.6 4.8 0.00 0.00 0.00 77 1009.0
20260502193632 27 263 8.0 11.3 0.00 0.00 0.00 76 1009.3
20260502193211 27 260 11.3 24.1 0.00 0.00 0.00 76 1009.6
20260502192629 27 245 9.7 20.9 0.00 0.00 0.00 76 1009.6
20260502192128 27 257 11.3 16.1 0.00 0.00 0.00 75 1009.6
20260502191627 28 238 9.7 14.5 0.00 0.00 0.00 74 1009.6
20260502191125 28 241 11.3 16.1 0.00 0.00 0.00 73 1009.7
20260502190624 28 263 9.7 14.5 0.00 0.00 0.00 71 1009.6
20260502190123 28 255 8.0 12.9 0.00 0.00 0.00 71 1009.6
20260502185641 28 232 12.9 27.4 0.00 0.00 0.00 70 1009.6
20260502185119 28 234 6.4 12.9 0.00 0.00 0.00 71 1009.6
20260502184618 28 233 4.8 11.3 0.00 0.00 0.00 70 1009.7
20260502184117 28 221 11.3 16.1 0.00 0.00 0.00 70 1009.6
20260502183616 28 253 12.9 24.1 0.00 0.00 0.00 70 1009.7
20260502183135 28 218 11.3 17.7 0.00 0.00 0.00 69 1009.7
20260502182633 29 247 12.9 22.5 0.00 0.00 0.00 68 1009.8
20260502182152 29 238 11.3 16.1 0.00 0.00 0.00 68 1009.7
20260502181630 29 266 17.7 27.4 0.00 0.00 0.00 67 1009.9
20260502181129 30 214 9.7 20.9 0.00 0.00 0.00 66 1009.7
20260502180628 30 247 16.1 30.6 0.00 0.00 0.00 66 1010.0
20260502180126 30 265 11.3 16.1 0.00 0.00 0.00 66 1010.2
20260502170130 30 255 12.9 27.4 0.00 0.00 0.00 69 1010.4
20260502164145 30 209 19.3 33.8 0.00 0.00 0.00 69 1010.1
20260502163624 30 239 14.5 30.6 0.00 0.00 0.00 67 1010.2
20260502163122 30 240 11.3 17.7 0.00 0.00 0.00 67 1010.4
20260502162621 30 267 17.7 27.4 0.00 0.00 0.00 68 1010.4
20260502162119 30 221 14.5 25.7 0.00 0.00 0.00 68 1010.4
20260502161618 30 274 11.3 24.1 0.00 0.00 0.00 69 1010.4
20260502161137 30 241 14.5 29.0 0.00 0.00 0.00 70 1010.4
20260502160615 29 225 14.5 27.4 0.00 0.00 0.00 69 1010.6
20260502160134 30 284 16.1 27.4 0.00 0.00 0.00 67 1010.5
20260502152144 28 232 17.7 25.7 0.00 0.00 0.00 74 1010.0
20260502151622 29 219 11.3 22.5 0.00 0.00 0.00 73 1010.1
20260502151121 29 227 14.5 20.9 0.00 0.00 0.00 72 1010.1
20260502150640 29 247 14.5 27.4 0.00 0.00 0.00 71 1010.1
20260502150118 29 218 8.0 20.9 0.00 0.00 0.00 71 1010.1
20260502130627 24 0.0 0.0 0.00 0.00 0.00 89 1009.2
20260502130146 24 0.0 0.0 0.00 0.00 0.00 89 1009.1
20260502123659 23 0.0 0.0 0.00 0.00 0.00 93 1009.1
20260502123117 23 131 0.0 1.6 0.00 0.00 0.00 93 1009.3
20260502122616 22 0.0 0.0 0.00 0.00 0.00 94 1009.2
20260502122135 22 166 1.6 4.8 0.00 0.00 0.00 95 1009.2
20260502121653 22 0.0 0.0 0.00 0.00 0.00 96 1009.1
20260502121132 22 0.0 0.0 0.00 0.00 0.00 96 1009.2
20260502120630 21 0.0 0.0 0.00 0.00 0.00 96 1009.2
20260502120129 21 0.0 0.0 0.00 0.00 0.00 97 1009.0
20260502115627 21 0.0 0.0 0.00 0.00 0.00 97 1008.9
20260502115126 21 161 0.0 1.6 0.00 0.00 0.00 97 1009.0
20260502114624 20 0.0 0.0 0.00 0.00 0.00 97 1009.1
20260502114123 20 0.0 0.0 0.00 0.00 0.00 97 1009.0
20260502113621 20 0.0 0.0 0.00 0.00 0.00 97 1009.0
20260502113120 20 0.0 0.0 0.00 0.00 0.00 97 1008.8
20260502112619 20 181 1.6 4.8 0.00 0.00 0.00 97 1008.8
20260502112118 20 0.0 0.0 0.00 0.00 0.00 97 1009.0
20260502111616 20 0.0 0.0 0.00 0.00 0.00 96 1008.7
20260502111135 19 186 1.6 1.6 0.00 0.00 0.00 96 1008.7
20260502110634 19 0.0 0.0 0.00 0.00 0.00 96 1008.9
20260502110153 19 0.0 0.0 0.00 0.00 0.00 96 1008.8
20260502105631 19 0.0 0.0 0.00 0.00 0.00 96 1008.6
20260502105129 19 0.0 0.0 0.00 0.00 0.00 96 1008.6
20260502104628 19 0.0 0.0 0.00 0.00 0.00 96 1008.5
20260502104127 19 0.0 0.0 0.00 0.00 0.00 96 1008.5
20260502103625 19 0.0 0.0 0.00 0.00 0.00 96 1008.5
20260502103144 19 0.0 0.0 0.00 0.00 0.00 95 1008.4
20260502102622 19 0.0 0.0 0.00 0.00 0.00 95 1008.6
20260502102121 19 0.0 0.0 0.00 0.00 0.00 95 1008.5
20260502101620 20 0.0 0.0 0.00 0.00 0.00 95 1008.7
20260502101139 20 0.0 0.0 0.00 0.00 0.00 94 1008.8
20260502100638 20 0.0 0.0 0.00 0.00 0.00 94 1008.7
20260502100116 20 0.0 0.0 0.00 0.00 0.00 94 1008.9
20260502091122 20 0.0 0.0 0.00 0.00 0.00 93 1009.0
20260502090621 20 0.0 0.0 0.00 0.00 0.00 93 1009.0
20260502090119 20 0.0 0.0 0.00 0.00 0.00 93 1009.0